Location: Dallas
(32.7833°N, 96.8000°W)
Time: 01:04:13
(UTC-06:00)

Envisat - Pass Details

Date: 31 January 2021
Orbit: 764 x 766 km, 98.1° (Epoch: 04 March)

Event Time Altitude Azimuth Distance (km) Brightness Sun altitude
Rises 06:34:35 0° 4° (N) 3,234 6.1 -10.5°
Reaches altitude 10° 06:36:58 10° 359° (N) 2,305 5.3 -10.0°
Maximum altitude 06:41:48 47° 287° (WNW) 1,010 3.2 -9.0°
Drops below altitude 10° 06:46:37 10° 214° (SW) 2,291 5.3 -8.0°
Sets 06:48:59 0° 209° (SSW) 3,213 6.1 -7.5°
